EW6539 Weather Reports


time (UTC)temp
C
wind
direction
speed
KPH
gust
KPH
rain 1hr
cm
rain 24hr
cm
rain mn
cm
humidity
%
barometer
mb
20260506202035 18 250 3.2 22.5 0.00 0.00 0.00 79 1008.5
20260506201604 18 238 4.8 20.9 0.00 0.00 0.00 79 1008.5
20260506201039 18 271 6.4 17.7 0.00 0.00 0.00 80 1008.6
20260506200536 18 232 4.8 24.1 0.00 0.00 0.00 80 1008.6
20260506200040 17 244 6.4 24.1 0.00 0.00 0.00 80 1008.6
20260506195536 17 199 3.2 14.5 0.00 0.00 0.00 82 1008.8
20260506195039 17 231 3.2 12.9 0.00 0.00 0.00 83 1008.7
20260506194549 17 261 1.6 9.7 0.00 0.00 0.00 84 1008.8
20260506194036 17 298 1.6 6.4 0.00 0.00 0.00 85 1008.9
20260506193535 17 264 0.0 6.4 0.00 0.00 0.00 86 1008.9
20260506193051 17 269 1.6 11.3 0.00 0.00 0.00 85 1009.0
20260506192536 17 0 0.0 11.3 0.00 0.00 0.00 85 1009.0
20260506192038 17 261 1.6 12.9 0.00 0.00 0.00 85 1009.1
20260506191542 17 209 1.6 14.5 0.00 0.00 0.00 85 1009.1
20260506191037 17 150 4.8 25.7 0.00 0.00 0.00 83 1009.1
20260506190535 17 219 4.8 25.7 0.00 0.00 0.00 81 1009.2
20260506190045 18 215 9.7 25.7 0.00 0.00 0.00 77 1009.1
20260506185536 18 269 6.4 22.5 0.00 0.00 0.00 74 1009.1
20260506185036 18 221 3.2 22.5 0.00 0.00 0.00 73 1009.1
20260506184549 18 251 6.4 22.5 0.00 0.00 0.00 73 1009.1
20260506184036 18 240 6.4 22.5 0.00 0.00 0.00 73 1009.1
20260506183539 18 189 8.0 33.8 0.00 0.00 0.00 73 1009.0
20260506183047 18 237 9.7 33.8 0.00 0.00 0.00 72 1009.1
20260506182535 18 211 11.3 33.8 0.00 0.00 0.00 72 1009.1
20260506182035 19 252 12.9 27.4 0.00 0.00 0.00 71 1009.2
20260506181545 20 159 4.8 24.1 0.00 0.00 0.00 70 1009.1
20260506181036 20 163 6.4 27.4 0.00 0.00 0.00 69 1009.3
20260506180537 20 256 4.8 29.0 0.00 0.00 0.00 69 1009.2
20260506180048 20 269 11.3 29.0 0.00 0.00 0.00 67 1009.2
20260506175536 20 19 4.8 30.6 0.00 0.00 0.00 67 1009.3
20260506175036 20 221 8.0 33.8 0.00 0.00 0.00 66 1009.3
20260506174541 20 265 17.7 33.8 0.00 0.00 0.00 64 1009.4
20260506174036 21 276 9.7 24.1 0.00 0.00 0.00 64 1009.5
20260506173538 21 291 9.7 30.6 0.00 0.00 0.00 65 1009.5
20260506173059 21 227 4.8 30.6 0.00 0.00 0.00 65 1009.3
20260506172537 21 238 8.0 22.5 0.00 0.00 0.00 64 1009.3
20260506172036 21 203 9.7 32.2 0.00 0.00 0.00 64 1009.3
20260506171551 21 128 9.7 32.2 0.00 0.00 0.00 64 1009.4
20260506171036 21 204 6.4 17.7 0.00 0.00 0.00 65 1009.7
20260506170537 20 232 1.6 14.5 0.00 0.00 0.00 69 1009.5
20260506170041 20 80 3.2 14.5 0.00 0.00 0.00 70 1009.6
20260506165540 20 170 3.2 19.3 0.00 0.00 0.00 70 1009.9
20260506165037 19 290 4.8 20.9 0.00 0.00 0.00 69 1009.9
20260506164539 20 243 3.2 25.7 0.00 0.00 0.00 69 1010.1
20260506164038 20 225 6.4 25.7 0.00 0.00 0.00 68 1010.3
20260506163535 19 240 4.8 25.7 0.00 0.00 0.00 68 1010.5
20260506163100 19 103 6.4 17.7 0.00 0.00 0.00 69 1010.8
20260506162535 19 196 8.0 16.1 0.00 0.00 0.00 69 1010.8
20260506162039 19 153 3.2 17.7 0.00 0.00 0.00 69 1010.9
20260506161546 20 209 6.4 19.3 0.00 0.00 0.00 68 1011.0
20260506161037 20 249 6.4 19.3 0.00 0.00 0.00 66 1011.0
20260506160535 20 275 3.2 22.5 0.00 0.00 0.00 66 1011.0
20260506160046 20 206 8.0 22.5 0.00 0.00 0.00 65 1011.0
20260506155536 20 244 4.8 30.6 0.00 0.00 0.00 64 1011.1
20260506155036 21 241 11.3 30.6 0.00 0.00 0.00 62 1011.1
20260506154547 21 265 4.8 19.3 0.00 0.00 0.00 60 1011.0
20260506154036 21 213 3.2 24.1 0.00 0.00 0.00 59 1011.1
20260506153536 21 201 4.8 24.1 0.00 0.00 0.00 59 1011.0
20260506153048 21 261 4.8 24.1 0.00 0.00 0.00 60 1011.0
20260506152536 21 219 8.0 22.5 0.00 0.00 0.00 60 1010.9
20260506152037 21 236 4.8 22.5 0.00 0.00 0.00 60 1011.1
20260506151549 21 217 8.0 20.9 0.00 0.00 0.00 60 1011.1
20260506151035 21 256 6.4 22.5 0.00 0.00 0.00 60 1011.0
20260506150535 21 244 8.0 22.5 0.00 0.00 0.00 60 1011.0
20260506150047 21 249 8.0 32.2 0.00 0.00 0.00 60 1011.0
20260506145539 21 238 9.7 32.2 0.00 0.00 0.00 59 1011.0
20260506145039 21 248 8.0 29.0 0.00 0.00 0.00 59 1011.0
20260506144545 21 118 9.7 33.8 0.00 0.00 0.00 59 1011.1
20260506144036 21 288 9.7 33.8 0.00 0.00 0.00 59 1011.1
20260506143537 21 235 8.0 22.5 0.00 0.00 0.00 59 1011.1
20260506143044 21 150 11.3 24.1 0.00 0.00 0.00 58 1010.9
20260506142534 21 251 4.8 25.7 0.00 0.00 0.00 59 1011.0
20260506142039 21 171 6.4 25.7 0.00 0.00 0.00 59 1011.0
20260506141538 21 291 6.4 25.7 0.00 0.00 0.00 59 1011.0
20260506141037 21 107 9.7 24.1 0.00 0.00 0.00 59 1011.0
20260506140537 21 182 4.8 16.1 0.00 0.00 0.00 60 1010.8
20260506140059 21 200 3.2 19.3 0.00 0.00 0.00 59 1010.8
20260506135536 21 0 8.0 19.3 0.00 0.00 0.00 60 1010.7
20260506135036 21 234 3.2 17.7 0.00 0.00 0.00 60 1010.8
20260506134545 21 294 8.0 24.1 0.00 0.00 0.00 60 1011.0
20260506134037 21 240 9.7 24.1 0.00 0.00 0.00 60 1011.0
20260506133538 21 204 4.8 24.1 0.00 0.00 0.00 60 1011.1
20260506133043 21 140 6.4 20.9 0.00 0.00 0.00 60 1011.0
20260506132536 21 69 8.0 24.1 0.00 0.00 0.00 60 1011.4
20260506132037 21 234 3.2 24.1 0.00 0.00 0.00 63 1011.3
20260506131545 21 136 6.4 19.3 0.00 0.00 0.00 64 1011.2
20260506131039 20 252 3.2 20.9 0.00 0.00 0.00 66 1011.4
20260506130538 20 195 4.8 20.9 0.00 0.00 0.00 66 1011.4
20260506130043 20 207 3.2 20.9 0.00 0.00 0.00 66 1011.4
20260506125537 20 225 6.4 20.9 0.00 0.00 0.00 67 1011.4
20260506125037 19 276 3.2 19.3 0.00 0.00 0.00 69 1011.3
20260506124541 19 153 6.4 19.3 0.00 0.00 0.00 70 1011.4
20260506124036 18 234 4.8 19.3 0.00 0.00 0.00 72 1011.4
20260506123537 18 245 8.0 19.3 0.00 0.00 0.00 73 1011.4
20260506123046 18 292 3.2 16.1 0.00 0.00 0.00 74 1011.4
20260506122537 17 219 3.2 9.7 0.00 0.00 0.00 75 1011.5
20260506122036 17 216 0.0 19.3 0.00 0.00 0.00 75 1011.5
20260506121547 17 177 0.0 19.3 0.00 0.00 0.00 76 1011.5
20260506121036 17 254 4.8 14.5 0.00 0.00 0.00 76 1011.6
20260506120537 17 231 4.8 17.7 0.00 0.00 0.00 76 1011.5
20260506120106 17 267 6.4 17.7 0.00 0.00 0.00 77 1011.5
20260506115536 17 246 3.2 19.3 0.00 0.00 0.00 77 1011.6
20260506115036 17 155 3.2 19.3 0.00 0.00 0.00 77 1011.7
20260506114558 17 132 8.0 19.3 0.00 0.00 0.00 78 1011.7
20260506114039 16 243 3.2 14.5 0.00 0.00 0.00 78 1011.6
20260506113537 16 231 3.2 16.1 0.00 0.00 0.00 79 1011.7
20260506113045 16 248 3.2 16.1 0.00 0.00 0.00 80 1011.9
20260506112537 16 156 3.2 20.9 0.00 0.00 0.00 81 1011.8
20260506112037 16 0 4.8 20.9 0.00 0.00 0.00 81 1011.8
20260506111546 16 350 1.6 25.7 0.00 0.00 0.00 82 1011.8
20260506111038 16 0 4.8 25.7 0.00 0.00 0.00 82 1011.9
20260506110537 15 312 1.6 19.3 0.00 0.00 0.00 82 1011.8
20260506110045 15 0 1.6 16.1 0.00 0.00 0.00 83 1011.7
20260506105539 15 80 0.0 6.4 0.00 0.00 0.00 83 1011.7
20260506105037 15 194 1.6 14.5 0.00 0.00 0.00 84 1011.8
20260506104547 15 80 1.6 14.5 0.00 0.00 0.00 84 1011.7
20260506104037 15 202 1.6 12.9 0.00 0.00 0.00 84 1011.7
20260506103537 15 248 3.2 12.9 0.00 0.00 0.00 84 1011.8
20260506103044 15 281 3.2 12.9 0.00 0.00 0.00 84 1011.7
20260506102537 15 248 1.6 12.9 0.00 0.00 0.00 84 1011.8
20260506102036 15 0 1.6 14.5 0.00 0.00 0.00 84 1011.7
20260506101539 15 140 1.6 14.5 0.00 0.00 0.00 84 1011.5
20260506101037 15 0 1.6 12.9 0.00 0.00 0.00 84 1011.6
20260506100537 15 0 1.6 12.9 0.00 0.00 0.00 84 1011.5
20260506100049 15 234 0.0 11.3 0.00 0.00 0.00 84 1011.5
20260506095538 15 147 1.6 11.3 0.00 0.00 0.00 84 1011.5
20260506095037 15 265 0.0 8.0 0.00 0.00 0.00 84 1011.5
20260506094548 15 135 1.6 8.0 0.00 0.00 0.00 83 1011.5
20260506094041 15 246 0.0 8.0 0.00 0.00 0.00 83 1011.5
20260506093537 15 139 0.0 9.7 0.00 0.00 0.00 83 1011.4
20260506093105 15 153 0.0 9.7 0.00 0.00 0.00 83 1011.4
20260506092537 15 266 1.6 11.3 0.00 0.00 0.00 83 1011.5
20260506092037 15 265 1.6 11.3 0.00 0.00 0.00 83 1011.6
20260506091547 15 211 1.6 14.5 0.00 0.00 0.00 83 1011.5
20260506091037 15 0 1.6 14.5 0.00 0.00 0.00 83 1011.5
20260506090537 15 250 1.6 9.7 0.00 0.00 0.00 83 1011.6
20260506090049 16 96 1.6 12.9 0.00 0.00 0.00 82 1011.5
20260506085537 16 128 1.6 12.9 0.00 0.00 0.00 82 1011.6
20260506085037 16 114 1.6 14.5 0.00 0.00 0.00 82 1011.7
20260506084539 16 254 3.2 14.5 0.00 0.00 0.00 82 1011.6
20260506084040 16 0 1.6 11.3 0.00 0.00 0.00 82 1011.8
20260506083537 16 103 3.2 11.3 0.00 0.00 0.00 82 1011.8
20260506083042 16 234 0.0 6.4 0.00 0.00 0.00 81 1011.7
20260506082537 16 88 1.6 9.7 0.00 0.00 0.00 81 1011.7
20260506082036 16 243 3.2 9.7 0.00 0.00 0.00 81 1011.8
20260506081545 16 245 0.0 9.7 0.00 0.00 0.00 81 1011.8
20260506081037 16 260 0.0 16.1 0.00 0.00 0.00 81 1011.8
20260506080537 16 0 3.2 16.1 0.00 0.00 0.00 81 1011.7
20260506073046 16 233 3.2 16.1 0.00 0.00 0.00 81 1011.6
20260506072537 16 0 0.0 11.3 0.00 0.00 0.00 81 1011.8
20260506072037 16 262 1.6 11.3 0.00 0.00 0.00 81 1011.9
20260506071540 16 159 1.6 8.0 0.00 0.00 0.00 81 1012.0
20260506071036 16 73 0.0 12.9 0.00 0.00 0.00 81 1012.0
20260506070538 16 156 1.6 12.9 0.00 0.00 0.00 81 1012.0
20260506062035 16 0 1.6 11.3 0.00 0.00 0.00 79 1012.0
20260506061556 16 0 0.0 11.3 0.00 0.00 0.00 78 1012.1
20260506061038 16 217 0.0 11.3 0.00 0.00 0.00 78 1012.1
20260506060535 16 0 0.0 11.3 0.00 0.00 0.00 78 1012.1
20260506051034 17 209 1.6 11.3 0.00 0.00 0.00 74 1012.4
20260506050534 17 0 0.0 11.3 0.00 0.00 0.00 74 1012.4
20260506045034 17 0 4.8 17.7 0.00 0.00 0.00 73 1012.4
20260506044556 17 0 3.2 12.9 0.00 0.00 0.00 72 1012.4
20260506044035 17 0 0.0 11.3 0.00 0.00 0.00 72 1012.5
20260506043535 18 0 1.6 12.9 0.00 0.00 0.00 72 1012.4
20260506043050 18 134 4.8 12.9 0.00 0.00 0.00 72 1012.4
20260506042535 18 285 1.6 12.9 0.00 0.00 0.00 71 1012.4
20260506042035 18 262 3.2 12.9 0.00 0.00 0.00 71 1012.4
20260506041549 18 194 1.6 20.9 0.00 0.00 0.00 71 1012.4
20260506041034 18 204 6.4 20.9 0.00 0.00 0.00 71 1012.5
20260506040538 18 177 1.6 12.9 0.00 0.00 0.00 71 1012.4
20260506040040 18 200 4.8 17.7 0.00 0.00 0.00 70 1012.5
20260506035535 18 176 3.2 19.3 0.00 0.00 0.00 70 1012.5
20260506035035 18 166 1.6 20.9 0.00 0.00 0.00 70 1012.4
20260506034546 18 0 4.8 20.9 0.00 0.00 0.00 70 1012.4
20260506034034 18 210 4.8 17.7 0.00 0.00 0.00 70 1012.6
20260506033536 18 166 3.2 17.7 0.00 0.00 0.00 70 1012.5
20260506033050 18 241 3.2 14.5 0.00 0.00 0.00 69 1012.5
20260506032535 18 217 4.8 20.9 0.00 0.00 0.00 69 1012.5
20260506032036 18 332 1.6 20.9 0.00 0.00 0.00 69 1012.3
20260506031547 18 254 4.8 17.7 0.00 0.00 0.00 69 1012.4
20260506031037 18 243 6.4 17.7 0.00 0.00 0.00 69 1012.3
20260506030538 18 229 3.2 16.1 0.00 0.00 0.00 68 1012.5
20260506030041 18 0 3.2 19.3 0.00 0.00 0.00 68 1012.4
20260506025537 18 190 6.4 19.3 0.00 0.00 0.00 68 1012.4
20260506025037 18 159 4.8 19.3 0.00 0.00 0.00 67 1012.4
20260506024540 18 277 1.6 12.9 0.00 0.00 0.00 67 1012.5
20260506024037 18 118 4.8 16.1 0.00 0.00 0.00 66 1012.5
20260506023537 18 306 1.6 16.1 0.00 0.00 0.00 65 1012.5
20260506023050 18 214 3.2 24.1 0.00 0.00 0.00 65 1012.6
20260506022536 19 209 4.8 24.1 0.00 0.00 0.00 64 1012.6
20260506022036 19 219 1.6 14.5 0.00 0.00 0.00 64 1012.5
20260506021547 19 235 3.2 14.5 0.00 0.00 0.00 63 1012.5
20260506021039 19 240 4.8 19.3 0.00 0.00 0.00 62 1012.6
20260506020536 19 304 4.8 19.3 0.00 0.00 0.00 62 1012.5
20260506020114 19 227 3.2 17.7 0.00 0.00 0.00 61 1012.5
20260506015540 20 242 4.8 17.7 0.00 0.00 0.00 61 1012.5
20260506015036 20 329 4.8 17.7 0.00 0.00 0.00 60 1012.5
20260506014547 20 167 4.8 20.9 0.00 0.00 0.00 60 1012.4
20260506014037 20 269 4.8 20.9 0.00 0.00 0.00 60 1012.3
20260506013537 20 121 4.8 17.7 0.00 0.00 0.00 60 1012.3
20260506013044 20 202 1.6 12.9 0.00 0.00 0.00 60 1012.3
20260506012537 20 117 3.2 14.5 0.00 0.00 0.00 59 1012.3
20260506012036 20 251 4.8 16.1 0.00 0.00 0.00 59 1012.2
20260506011549 20 190 1.6 16.1 0.00 0.00 0.00 59 1012.2
20260506011037 20 198 3.2 16.1 0.00 0.00 0.00 58 1012.2
20260506010539 20 249 4.8 16.1 0.00 0.00 0.00 58 1012.2
20260506010040 20 117 4.8 16.1 0.00 0.00 0.00 58 1012.2
20260506005537 20 207 1.6 19.3 0.00 0.00 0.00 58 1012.1
20260506005036 20 107 4.8 19.3 0.00 0.00 0.00 57 1012.0
20260506004546 20 166 8.0 19.3 0.00 0.00 0.00 57 1012.0
20260506004036 20 232 4.8 12.9 0.00 0.00 0.00 57 1011.9
20260506003536 21 244 3.2 12.9 0.00 0.00 0.00 56 1011.9
20260506003047 21 180 1.6 11.3 0.00 0.00 0.00 56 1012.0
20260506002537 21 249 1.6 11.3 0.00 0.00 0.00 56 1011.8
20260506002036 21 47 1.6 14.5 0.00 0.00 0.00 54 1011.8
20260506001549 21 163 0.0 14.5 0.00 0.00 0.00 54 1011.8
20260506001036 22 202 3.2 14.5 0.00 0.00 0.00 53 1011.7
20260506000536 22 226 3.2 12.9 0.00 0.00 0.00 52 1011.6
20260506000059 22 0 1.6 12.9 0.00 0.00 0.00 50 1011.6
20260505235538 23 220 3.2 19.3 0.00 0.00 0.00 49 1011.5
20260505235039 23 109 3.2 19.3 0.00 0.00 0.00 47 1011.4
20260505234543 23 200 3.2 24.1 0.00 0.00 0.00 45 1011.3
20260505234037 23 202 4.8 24.1 0.00 0.00 0.00 44 1011.3
20260505233536 24 253 4.8 20.9 0.00 0.00 0.00 42 1011.3
20260505233042 24 250 8.0 25.7 0.00 0.00 0.00 40 1011.2
20260505232539 25 293 4.8 29.0 0.00 0.00 0.00 39 1011.2
20260505232037 25 198 9.7 29.0 0.00 0.00 0.00 39 1011.0
20260505231541 25 139 6.4 20.9 0.00 0.00 0.00 38 1010.9
20260505231036 25 263 4.8 25.7 0.00 0.00 0.00 38 1010.9
20260505230536 25 124 6.4 25.7 0.00 0.00 0.00 37 1010.7
20260505230049 25 147 8.0 30.6 0.00 0.00 0.00 37 1010.8
20260505225536 26 230 3.2 30.6 0.00 0.00 0.00 37 1010.7
20260505225037 26 343 4.8 22.5 0.00 0.00 0.00 37 1010.6
20260505224550 26 263 6.4 22.5 0.00 0.00 0.00 36 1010.7
20260505224036 26 122 4.8 22.5 0.00 0.00 0.00 35 1010.4
20260505223536 26 78 6.4 29.0 0.00 0.00 0.00 35 1010.4
20260505223043 26 260 8.0 29.0 0.00 0.00 0.00 34 1010.4
20260505222538 26 159 6.4 27.4 0.00 0.00 0.00 34 1010.2
20260505222042 27 142 12.9 27.4 0.00 0.00 0.00 33 1010.1
20260505221555 27 225 9.7 24.1 0.00 0.00 0.00 34 1010.2
20260505221035 27 112 6.4 25.7 0.00 0.00 0.00 33 1010.3
20260505220536 27 139 1.6 38.6 0.00 0.00 0.00 34 1010.0
20260505220103 27 253 6.4 38.6 0.00 0.00 0.00 33 1010.0
20260505215538 27 247 8.0 25.7 0.00 0.00 0.00 33 1009.9
20260505215036 27 252 6.4 30.6 0.00 0.00 0.00 33 1010.0
20260505214551 27 261 12.9 30.6 0.00 0.00 0.00 32 1010.0
20260505214036 27 238 11.3 27.4 0.00 0.00 0.00 32 1009.9
20260505213536 27 64 11.3 29.0 0.00 0.00 0.00 32 1009.9
20260505213043 27 150 12.9 29.0 0.00 0.00 0.00 33 1009.8
20260505212536 27 138 8.0 20.9 0.00 0.00 0.00 32 1009.7
20260505212037 27 223 6.4 38.6 0.00 0.00 0.00 33 1009.6
20260505211607 27 284 9.7 38.6 0.00 0.00 0.00 31 1009.6
20260505211036 27 263 16.1 38.6 0.00 0.00 0.00 31 1009.5
20260505210536 28 243 6.4 30.6 0.00 0.00 0.00 31 1009.4
20260505210047 28 239 11.3 25.7 0.00 0.00 0.00 32 1009.4
20260505205537 28 253 12.9 25.7 0.00 0.00 0.00 32 1009.4
20260505205037 28 261 11.3 24.1 0.00 0.00 0.00 31 1009.4
20260505204557 28 234 6.4 25.7 0.00 0.00 0.00 32 1009.4
20260505204036 28 22 11.3 29.0 0.00 0.00 0.00 32 1009.5
20260505203537 28 217 6.4 35.4 0.00 0.00 0.00 33 1009.4
20260505203046 28 194 9.7 35.4 0.00 0.00 0.00 33 1009.4
20260505202536 28 73 12.9 30.6 0.00 0.00 0.00 31 1009.5